Location: Observatoire de l'Aigle
(47.0607°N, 71.3152°W)
Time: 19:39:37
(UTC-05:00)

Daily predictions for brighter satellites

Satellite Brightness Start Highest point End
(mag) Time Altitude Azimuth Time Altitude Azimuth Time Altitude Azimuth
CSL-04 Debris 4.5 16:24:29 10° SE 16:29:35 45° ENE 16:34:43 10° N
ATLAS 3B R/B 2.6 16:23:43 10° NW 16:30:27 65° NE 16:36:57 10° SE
ATLAS 2AS CENTAUR R/B 3.3 16:25:06 10° SSW 16:32:41 59° ESE 16:40:38 10° NE
Meteor 1-18 Rocket 4.2 16:28:37 10° S 16:34:11 76° E 16:39:53 10° NNE
NOSS 2-3 (E) 4.1 16:30:55 10° SW 16:35:39 81° NW 16:41:20 10° NE
Cosmos 1378 Rocket 3.9 16:31:20 10° SSW 16:35:46 70° W 16:40:14 10° N
SL-16 R/B 4.5 16:34:53 10° N 16:39:35 23° WNW 16:44:16 10° WSW
MSX 4.1 16:34:39 10° S 16:40:26 78° WSW 16:46:15 10° NNW
ALOS 3.7 16:38:04 10° E 16:41:02 17° ENE 16:44:00 10° NNE
IRAS Rocket 4.2 16:37:40 10° SSE 16:43:05 65° ENE 16:48:32 10° N
Cosmos 158 Rocket 4.1 16:39:53 10° NNW 16:44:52 49° ENE 16:49:41 10° SE
CSL-04 Rocket 3.7 16:41:03 10° SSE 16:46:26 68° ENE 16:51:56 10° N
USA 215 3.4 16:40:56 10° SE 16:47:29 82° SW 16:54:04 10° NW
Meteor 1-28 Rocket 4.1 16:45:44 10° NNE 16:49:05 30° E 16:52:25 10° SSE
Cosmos 1634 Rocket 4.3 16:43:49 10° SSW 16:50:01 75° W 16:56:20 10° N
CZ-4 R/B 1.7 16:48:03 10° SE 16:51:42 40° ENE 16:55:27 10° N
Cosmos 2369 Rocket 4.3 16:49:03 10° W 16:52:50 18° NW 16:56:38 10° N
Cosmos 1697 Rocket 4.0 16:52:06 10° SE 16:56:06 20° E 16:59:19 13° ENE
OPS 6432 4.4 16:53:28 10° SW 16:56:56 70° NW 16:59:41 12° NE
Cosmos 1743 2.7 16:54:54 10° N 16:58:47 83° ENE 17:02:41 10° S
Meteor 1-19 Rocket 4.4 16:54:13 10° S 16:59:46 57° E 17:05:28 10° NNE
Cosmos 2150 Rocket 4.2 16:54:36 10° SSW 17:00:04 83° WNW 17:05:33 10° NNE
Cosmos 2082 3.6 16:59:06 10° NNW 17:04:43 66° ENE 17:10:18 10° SE
Cosmos 2266 Rocket 4.0 17:02:39 10° N 17:08:38 54° ENE 17:14:38 10° SSE
Cosmos 1655 Rocket 4.3 17:02:23 10° N 17:08:47 78° W 17:15:10 10° S
CENTAUR R/B 3.6 17:03:16 10° NW 17:10:14 38° NNE 17:17:18 12° E
Abrixas rocket 2.1 17:09:46 10° W 17:13:02 78° N 17:14:55 23° ENE
Cosmos 2227 Rocket 2.3 17:10:50 10° NNW 17:16:33 84° WSW 17:22:11 10° SSE
ISS -1.3 17:16:28 10° W 17:19:09 23° SW 17:21:51 10° SSE
SPOT 3 Rocket 3.9 17:16:30 10° SE 17:21:17 39° ENE 17:26:04 10° N
Cosmos 1455 Rocket 3.3 17:17:04 10° NNW 17:21:29 72° W 17:25:51 10° S
ERS-2 2.6 17:20:19 10° SE 17:23:42 36° ENE 17:27:05 10° N
CORIOLIS 4.2 17:18:44 10° SSE 17:24:09 83° WSW 17:29:35 10° NNW
Cosmos 1544 Rocket 4.1 17:21:26 10° NNW 17:25:45 60° W 17:30:00 10° S
MINOTAUR IV R/B 4.5 17:24:28 10° NNW 17:28:59 82° ENE 17:33:27 10° SSE
Cosmos 1271 Rocket 4.0 17:25:28 10° NNW 17:29:05 43° W 17:32:44 10° SSW
Meteor 2-9 Rocket 4.1 17:23:44 10° N 17:29:18 89° E 17:34:41 10° S
Ariane Rocket 3.6 17:25:13 10° S 17:30:12 60° WSW 17:35:14 10° NNW
USA 161 4.3 17:29:06 10° NNW 17:31:10 18° WNW 17:33:16 10° WSW
Cosmos 2251 Rocket 4.4 17:27:00 10° N 17:31:32 28° NE 17:33:00 24° E
USA 116 3.0 17:30:22 23° NNE 17:32:12 65° ESE 17:35:16 10° S
MOS 1 4.3 17:26:48 10° SSE 17:32:23 62° ENE 17:37:59 10° N
YAOGAN 1 2.5 17:29:46 10° SSE 17:34:05 84° ENE 17:38:27 10° NNW
Cosmos 494 Rocket 4.4 17:31:07 10° N 17:36:06 40° ENE 17:41:03 10° SE
CZ-4 R/B 4.3 17:32:34 10° SSE 17:36:42 83° ENE 17:40:52 10° NNW
Cosmos 1980 Rocket 3.2 17:32:25 10° SSE 17:36:56 25° ESE 17:37:46 24° E
Meteor 1-23 Rocket 4.3 17:32:19 10° S 17:37:55 57° E 17:43:28 10° NNE
Cosmos 1269 Rocket 4.0 17:32:45 10° NNW 17:38:06 85° ENE 17:43:24 10° SSE
USA 238 4.5 17:31:15 10° NW 17:38:11 57° WSW 17:45:10 10° SSE
STPSAT 2 (USA 217) 4.5 17:35:58 10° NNW 17:40:33 76° ENE 17:45:05 10° SSE
Gblst 52 Del rocket 4.2 17:35:55 10° WNW 17:41:32 88° NNE 17:46:02 19° ESE
Cosmos 1125 Rocket 3.4 17:37:46 10° SSW 17:43:04 79° ESE 17:47:09 17° NNE
Cosmos 2297 Rocket 2.7 17:37:31 10° NNW 17:43:06 62° WSW 17:48:41 10° S
COSMO-SKYMED 1 2.5 17:44:36 22° NNE 17:47:18 60° E 17:51:35 10° S
CZ-2C R/B 3.8 17:43:50 10° NNE 17:48:33 83° WNW 17:53:18 10° SSW
Cosmos 1048 Rocket 4.4 17:43:16 10° NNW 17:48:37 66° WSW 17:53:56 10° S
Cosmos 1656 3.5 17:46:05 10° SSW 17:51:39 78° ESE 17:55:06 24° NNE
SJ 16-02 1.4 17:51:00 10° SSW 17:55:24 80° WNW 17:58:00 25° NNE
MONITOR-E 4.2 17:55:35 10° S 17:58:37 76° WSW 18:01:42 10° NNW
Cosmos 372 Rocket 4.0 17:54:27 10° SSW 17:59:40 80° WNW 18:03:11 21° NNE
Cosmos 2227 4.4 17:56:02 10° NNW 18:01:36 46° NE 18:03:07 38° E
COSMOS 2455 4.3 17:59:23 10° NNW 18:03:12 20° NNE 18:03:12 20° NNE
Meteor 2-11 Rocket 4.3 17:59:40 10° S 18:05:45 67° E 18:11:49 10° NNE
NOSS 3-2 (A) 4.4 17:59:33 10° NW 18:06:58 65° WSW 18:15:01 10° SSE
Cosmos 1553 Rocket 4.4 18:01:13 10° SSE 18:07:06 40° E 18:07:53 39° ENE
MTI 4.1 18:07:57 61° NW 18:08:14 65° WNW 18:11:27 10° SSW
Meteor 2-4 Rocket 4.2 18:04:10 10° SSW 18:09:28 56° WNW 18:14:45 10° N
SL-24 R/B - RUBIN 2 4.4 18:08:21 10° SSW 18:14:16 50° ESE 18:14:59 47° E
NOSS 3-2 (C) 4.2 18:07:11 10° NW 18:14:39 74° SW 18:22:48 10° SSE
NOAA 12 4.1 18:09:31 10° SSE 18:14:47 80° WSW 18:20:04 10° NNW
Cosmos 1745 Rocket 4.2 18:10:47 10° N 18:24:44 - SSE 18:16:25 45° ENE
Okean 1-7 Rocket 3.6 18:12:57 10° S 18:16:45 59° SE 18:16:45 59° SE
ALOS 2.5 18:13:19 10° S 18:17:57 68° WSW 18:22:37 10° NNW
Cosmos 1025 Rocket 2.9 18:15:08 10° S 18:19:26 89° WNW 18:19:59 68° N
Cosmos 2263 Rocket 3.5 18:14:49 10° N 18:17:42 24° NNE 18:17:42 24° NNE
ATLAS 3B R/B 4.4 18:15:02 10° NW 18:20:40 30° WSW 18:26:11 10° S
Cosmos 2369 4.2 18:15:33 10° SW 18:21:09 58° WNW 18:24:30 25° NNE
Cosmos 2278 4.1 18:16:06 10° SW 18:21:43 61° WNW 18:24:58 26° NNE
FENGYUN 3A 3.9 18:18:38 10° S 18:23:58 67° WSW 18:29:19 10° NNW
ATLAS 2AS CENTAUR R/B 3.8 18:16:23 10° WSW 18:24:02 48° NW 18:29:09 22° NNE
Cosmos 2360 4.3 18:19:35 10° S 18:24:59 54° ESE 18:24:59 54° ESE
CZ-4 R/B 4.2 18:24:13 10° SW 18:26:57 18° W 18:29:44 10° NW
Cosmos 1241 Rocket 4.4 18:22:11 10° SSW 18:28:34 87° SE 18:30:28 49° NE
EO 1 Del DPAF 4.0 18:33:38 50° WNW 18:33:40 50° WNW 18:37:22 10° SSW
DNEPR-1 R/B 4.2 18:28:50 10° NW 18:33:52 77° SW 18:36:20 36° SSE
Cosmos 2084 4.4 18:30:05 10° SSW 18:32:46 38° SSW 18:32:46 38° SSW
Cosmos 1697 Rocket 2.9 18:33:52 10° SW 18:39:29 69° WNW 18:41:05 47° N
NOSS 3-4 (A) 3.4 18:38:28 10° SW 18:44:42 86° NW 18:45:47 64° NNE
NOSS 3-4 (C) 3.4 18:38:33 10° SW 18:44:48 87° NW 18:45:51 65° NNE
Gbstr 26 Del rocket 4.1 18:50:11 10° WSW 18:58:07 88° NNW 18:58:45 77° NE
CENTAUR R/B 3.1 18:53:55 10° NW 19:01:46 82° SW 19:04:34 47° SSE
Cosmos 2251 Rocket 4.4 19:08:59 10° NNW 19:13:36 47° W 19:13:36 47° W
S3M 4.5 19:12:31 10° SSW 19:17:04 51° SW 19:17:04 51° SW
Cosmos 1980 Rocket 2.9 19:14:58 10° SW 19:19:35 50° W 19:19:35 50° W
SJ 16-02 4.3 19:33:12 10° WNW 19:34:48 12° NW 19:35:02 12° NW
